Location: São Paulo
(23.5507°S, 46.6334°W)
Time: 13:58:21
(UTC-03:00)

Tiros 1 - Pass Details

Date: 13 February 2026
Orbit: 618 x 649 km, 48.4° (Epoch: 11 March)

Event Time Altitude Azimuth Distance (km) Brightness Sun altitude
Rises 22:18:47 0° 269° (W) 2,940 11.0 -42.8°
Enters shadow 22:19:22 - 266° (W) 2,764 10.9 -42.9°
Reaches altitude 10° 22:22:16 10° 242° (WSW) 2,044 - -43.3°
Maximum altitude 22:24:37 14° 212° (SSW) 1,823 - -43.7°
Drops below altitude 10° 22:26:59 10° 182° (S) 2,059 - -44.0°
Sets 22:30:31 0° 155° (SSE) 2,979 - -44.5°
